Regional Weather Roundup
Issued by NWS

Home | Current Version | Previous Version | Text Only | Print | Product List | Glossary Off
Versions: 1 2 3 4 5 6 7 8 9 10 11 12 13 14 15 16 17 18 19 20 21 22 23 24 25 26 27 28 29 30 31 32 33 34 35 36 37 38 39 40 41 42 43 44 45 46 47 48 49 50

000
ASUS45 KSLC 161110
RWRUT

UTAH REGIONAL WEATHER ROUNDUP
NATIONAL WEATHER SERVICE SALT LAKE CITY UT
500 AM MDT TUE SEP 16 2014

UTZ001>011-023>025-161200-

NORTHERN UTAH

CITY           SKY/WX    TMP DP  RH WIND       PRES   REMARKS
HILL AFB       CLEAR     62  38  40 E18       30.11S
LOGAN          CLEAR     46  43  89 N3        30.12F
OGDEN          CLEAR     63  38  39 S6        30.09S
PROVO AIRPORT  CLEAR     55  46  71 CALM      30.15S
SALT LAKE CITY CLEAR     66  43  43 S12       30.07F
VERNAL         CLEAR     54  42  64 CALM      30.21S
WENDOVER       PTCLDY    64  36  34 E5        30.07S
HEBER CITY     CLEAR     41  37  87 CALM      30.24F
WEST JORDAN    CLEAR     64  39  39 S9        30.10F

$$

UTZ012>022-026-027-161200-

SOUTHERN UTAH

CITY           SKY/WX    TMP DP  RH WIND       PRES   REMARKS
BRYCE CANYON   CLEAR     45  39  79 W6        30.37F
CEDAR CITY     CLEAR     53  41  63 CALM      30.19S
MILFORD        CLEAR     55  38  52 S7        30.14S
MOAB/CYNLANDS  CLEAR     65  41  41 SE6       30.13S
PRICE          PTCLDY    59  36  42 N8        30.23S
ST GEORGE      SUNNY     68  41  37 SE5       30.02R
KANAB            N/A     57  39  51 NE7       30.19S

$$

REGIONAL REPORTS     COLORADO/ARIZONA

CITY           SKY/WX    TMP DP  RH WIND       PRES   REMARKS
CRAIG, CO      PTCLDY    42  38  85 CALM      30.30S
GRAND JUNCTION CLEAR     56  41  57 SE12      30.19R
RIFLE          CLEAR     49  40  71 SE3       30.27S
MONTROSE       MOCLDY    55  41  59 S7        30.28S
CORTEZ         CLEAR     54  46  74 E7        30.30S
PAGE, AZ       CLEAR     73  45  36 SE9       30.13S
GRAND CANYON   CLEAR     46  42  86 CALM      30.29S
KINGMAN        CLEAR     73  52  47 SE10      30.02S
FLAGSTAFF      CLEAR     48  44  86 CALM      30.32F

$$

REGIONAL REPORTS    NEVADA/IDAHO/WYOMING

CITY           SKY/WX    TMP DP  RH WIND       PRES   REMARKS
LAS VEGAS, NV  CLEAR     82  50  32 SW6       29.86S
ELY            CLEAR     50  37  61 SE7       30.23R
ELKO           CLEAR     53  29  39 CALM      30.11R
POCATELLO, ID  CLEAR     59  37  44 NE12      30.10S
BURLEY         PTCLDY    53  44  71 N3        30.05R
EVANSTON, WY   PTCLDY    53  30  41 SE6       30.30F
ROCK SPRINGS   PTCLDY    55  33  43 CALM      30.30S

$$


USA.gov is the U.S. government's official web portal to all federal, state and local government web resources and services.